Flag for Canada Weather past 2 weeks in Steinbach, Manitoba, Canada

Now
65 °F

Mild.


Feels Like: 65 °F
Forecast: 54 / 81 °F
Wind: 2 mph from Northwest

Location: Winnipeg The Forks

Current Time: Jul 30, 2014 at 4:43:45 AM

Latest Report: Jul 30, 2014 at 4:00 AM


Visibility: N/A

Pressure: 30.08 "Hg

Humidity: 77%

Dew point: 57 °F

Location of SteinbachLocation

Historic Weather in Steinbach — Graph

°F

Steinbach temperature yesterday

Maximum temperature yesterday: 79 °F (at 5:00 PM)
Minimum temperature yesterday: 61 °F (at 6:00 AM)
Average temperature yesterday: 70 °F

Past Weeks' High & Low Weather Summary

 TemperatureHumidityPressure
High88 °F (Jul 20, 3:00 PM)95% (Jul 15, 5:00 AM)30.33 "Hg (Jul 15, 5:00 AM)
Low51 °F (Jul 15, 5:00 AM)28% (Jul 25, 5:00 PM)29.49 "Hg (Jul 20, 2:00 PM)
Average69 °F63%29.92 "Hg
* Reported Jul 15 3:00 AM — Jul 30 3:00 AM, Steinbach, Weather by CustomWeather, © 2014

Note: Actual official high and low records may vary slightly from our data, if they occured in-between our weather recording intervals... More about our weather records

Advertising

Steinbach weather history for previous 24 hours

 ConditionsComfort  
Time TempWeatherWind HumidityBarometerVisibility
3:00 AM
Jul 30
65 °FMild.2 mph72%30.08 "HgN/A
2:00 AM66 °FMild.2 mph65%30.08 "HgN/A
1:00 AM69 °FMild.2 mph58%30.08 "HgN/A
12:00 AM69 °FMild.2 mph59%30.08 "HgN/A
11:00 PM
Jul 29
70 °FMild.2 mph58%30.08 "HgN/A
10:00 PM71 °FMild.3 mph52%30.08 "HgN/A
9:00 PM73 °FMild.3 mph54%30.07 "HgN/A
8:00 PM75 °FMild.5 mph50%30.08 "HgN/A
7:00 PM77 °FWarm.6 mph45%30.08 "HgN/A
6:00 PM78 °FWarm.6 mph41%30.09 "HgN/A
5:00 PM79 °FPleasantly warm.3 mph36%30.10 "HgN/A
4:00 PM79 °FPleasantly warm.6 mph36%30.11 "HgN/A
3:00 PM78 °FPleasantly warm.5 mph39%30.11 "HgN/A
2:00 PM78 °FPleasantly warm.3 mph37%30.12 "HgN/A
1:00 PM76 °FMild.5 mph43%30.13 "HgN/A
12:00 PM75 °FMild.5 mph49%30.14 "HgN/A
11:00 AM73 °FMild.3 mph53%30.14 "HgN/A
10:00 AM71 °FMild.6 mph59%30.15 "HgN/A
9:00 AM67 °FMild.6 mph71%30.15 "HgN/A
8:00 AM62 °FCool.2 mph84%30.16 "HgN/A
7:00 AM61 °FCool.2 mph74%30.15 "HgN/A
6:00 AM61 °FCool.3 mph77%30.15 "HgN/A
5:00 AM62 °FMild.2 mph73%30.14 "HgN/A
4:00 AM63 °FMild.3 mph73%30.15 "HgN/A
Weather by CustomWeather, © 2014

See weather overviewHow to use our weather pages